Starlink 31738

operational
NORAD ID: 59535 Int'l Des: 2024-074 Owner: SPXS Country: US Constellation: starlink
LEOCIRCULAR

Starlink 31738について

説明を読み込み中...

リアルタイム位置

3D地球を読み込み中...

次回通過

高度履歴

Altitude vs Time

uPlot chart will show altitude changes over time

軌道要素

1 59535U 24074B 25351.34184792 -.00000958 00000-0 -25307-4 0 9993
2 59535 43.0022 84.7516 0000912 242.5694 117.5065 15.27583420 93469
Epoch: Dec 17, 2025 • Age: 11 hours

現在のステータス

高度 495.7 km
速度 7.62 km/s
衛星直下点 -42.94°S, 23.13°W
打ち上げ日 Apr 18, 2024
運用期間 1.6 years
タイプ internet

技術仕様

分類 Payload
質量 730.00 kg
乾燥質量 700.00 kg
総質量 730.00 kg
長さ 0.30 m
直径 4.10 m
スパン 29.00 m
形状 Box + pan
製造者 SPXS
バスタイプ Starlink V2M
フェーズステータス In Orbit
所有者/国 SPXS/US

大規模コンステレーション

Loading constellations...